TimeEDT,TemperatureF,Dew PointF,Humidity,Sea Level PressureIn,VisibilityMPH,Wind Direction,Wind SpeedMPH,Gust SpeedMPH,PrecipitationIn,Events,Conditions,WindDirDegrees,DateUTC
12:09 AM,53.6,51.8,94,29.76,1.5,Calm,Calm,-,N/A,,Partly Cloudy,0,2013-06-14 04:09:00
12:20 AM,51.8,50.0,94,29.76,0.8,Calm,Calm,-,N/A,,Clear,0,2013-06-14 04:20:00
12:43 AM,50.0,48.2,94,29.76,2.0,Calm,Calm,-,N/A,,Clear,0,2013-06-14 04:43:00
12:56 AM,50.0,48.0,93,29.76,1.2,Calm,Calm,-,N/A,,Clear,0,2013-06-14 04:56:00
1:01 AM,50.0,48.2,94,29.76,0.5,Calm,Calm,-,N/A,Fog,Fog,0,2013-06-14 05:01:00
1:11 AM,50.0,48.2,94,29.76,0.2,Calm,Calm,-,N/A,Fog,Fog,0,2013-06-14 05:11:00
1:48 AM,48.2,46.4,93,29.76,0.5,Calm,Calm,-,N/A,Fog,Fog,0,2013-06-14 05:48:00
1:56 AM,48.0,46.9,96,29.76,0.5,SE,3.5,-,N/A,Fog,Fog,140,2013-06-14 05:56:00
2:25 AM,48.2,46.4,93,29.75,0.5,Calm,Calm,-,N/A,Fog,Fog,0,2013-06-14 06:25:00
2:32 AM,48.2,46.4,93,29.75,0.5,Calm,Calm,-,N/A,Fog,Fog,0,2013-06-14 06:32:00
2:53 AM,46.4,46.4,100,29.75,0.2,Calm,Calm,-,N/A,Fog,Fog,0,2013-06-14 06:53:00
2:56 AM,46.9,46.0,97,29.75,0.2,Calm,Calm,-,N/A,Fog,Fog,0,2013-06-14 06:56:00
3:18 AM,48.2,46.4,93,29.75,0.5,SE,3.5,-,N/A,Fog,Fog,140,2013-06-14 07:18:00
3:22 AM,50.0,48.2,94,29.75,1.2,Calm,Calm,-,N/A,,Scattered Clouds,0,2013-06-14 07:22:00
3:29 AM,46.4,46.4,100,29.75,0.8,Calm,Calm,-,N/A,,Mist,0,2013-06-14 07:29:00
3:34 AM,46.4,44.6,93,29.75,0.2,Calm,Calm,-,N/A,Fog,Fog,0,2013-06-14 07:34:00
3:56 AM,48.0,46.9,96,29.76,0.2,ENE,3.5,-,N/A,Fog,Fog,60,2013-06-14 07:56:00
4:13 AM,48.2,46.4,93,29.76,0.5,Calm,Calm,-,N/A,Fog,Fog,0,2013-06-14 08:13:00
4:25 AM,46.4,46.4,100,29.77,0.2,Calm,Calm,-,N/A,Fog,Fog,0,2013-06-14 08:25:00
4:56 AM,48.0,46.9,96,29.78,0.2,Calm,Calm,-,N/A,Fog,Fog,0,2013-06-14 08:56:00
5:08 AM,48.2,46.4,93,29.78,0.2,SSE,3.5,-,N/A,Fog,Fog,150,2013-06-14 09:08:00
5:37 AM,50.0,48.2,94,29.78,0.5,Calm,Calm,-,N/A,Fog,Fog,0,2013-06-14 09:37:00
5:45 AM,50.0,50.0,100,29.79,0.2,Calm,Calm,-,N/A,Fog,Fog,0,2013-06-14 09:45:00
5:56 AM,51.1,50.0,96,29.79,0.2,Calm,Calm,-,N/A,Fog,Fog,0,2013-06-14 09:56:00
6:19 AM,51.8,51.8,100,29.80,0.2,Calm,Calm,-,N/A,Fog,Fog,0,2013-06-14 10:19:00
6:56 AM,52.0,51.1,97,29.80,0.2,Calm,Calm,-,N/A,Fog,Fog,0,2013-06-14 10:56:00
7:05 AM,51.8,51.8,100,29.80,0.8,Calm,Calm,-,N/A,,Overcast,0,2013-06-14 11:05:00
7:10 AM,51.8,51.8,100,29.80,2.0,Calm,Calm,-,N/A,,Overcast,0,2013-06-14 11:10:00
7:13 AM,51.8,51.8,100,29.80,3.0,Calm,Calm,-,N/A,,Overcast,0,2013-06-14 11:13:00
7:56 AM,55.9,55.0,97,29.81,9.0,Calm,Calm,-,N/A,,Overcast,0,2013-06-14 11:56:00
8:56 AM,62.1,57.0,84,29.83,10.0,North,8.1,-,N/A,,Mostly Cloudy,10,2013-06-14 12:56:00
9:12 AM,62.6,57.2,82,29.84,10.0,NNE,6.9,-,N/A,,Overcast,20,2013-06-14 13:12:00
9:32 AM,66.2,57.2,73,29.84,10.0,North,9.2,-,N/A,,Overcast,360,2013-06-14 13:32:00
9:56 AM,66.0,57.0,73,29.83,10.0,North,12.7,18.4,N/A,,Overcast,360,2013-06-14 13:56:00
10:56 AM,66.9,55.9,68,29.84,10.0,North,11.5,-,0.01,,Mostly Cloudy,350,2013-06-14 14:56:00
11:14 AM,69.8,57.2,64,29.85,10.0,NNE,10.4,-,N/A,,Scattered Clouds,20,2013-06-14 15:14:00
11:37 AM,69.8,55.4,60,29.85,10.0,North,10.4,-,N/A,,Mostly Cloudy,10,2013-06-14 15:37:00
11:56 AM,71.1,57.0,61,29.84,10.0,NNE,11.5,-,N/A,,Mostly Cloudy,30,2013-06-14 15:56:00
12:11 PM,69.8,55.4,60,29.85,10.0,North,6.9,-,N/A,,Mostly Cloudy,350,2013-06-14 16:11:00
12:56 PM,72.0,57.0,59,29.85,10.0,NNW,9.2,-,N/A,,Scattered Clouds,340,2013-06-14 16:56:00
1:56 PM,75.0,55.9,51,29.85,10.0,North,11.5,16.1,N/A,,Partly Cloudy,360,2013-06-14 17:56:00
2:56 PM,73.9,54.0,50,29.85,10.0,NNW,10.4,18.4,N/A,,Partly Cloudy,340,2013-06-14 18:56:00
3:56 PM,71.1,57.9,63,29.86,10.0,WSW,13.8,20.7,N/A,,Mostly Cloudy,240,2013-06-14 19:56:00
4:56 PM,69.1,59.0,70,29.87,10.0,WSW,8.1,-,N/A,,Scattered Clouds,240,2013-06-14 20:56:00
5:56 PM,70.0,60.1,71,29.87,10.0,WSW,4.6,-,N/A,,Clear,240,2013-06-14 21:56:00
6:56 PM,71.1,59.0,66,29.87,10.0,WSW,3.5,-,N/A,,Clear,240,2013-06-14 22:56:00
7:56 PM,64.9,59.0,81,29.88,10.0,Calm,Calm,-,N/A,,Clear,0,2013-06-14 23:56:00
8:56 PM,59.0,55.9,90,29.89,10.0,Calm,Calm,-,N/A,,Clear,0,2013-06-15 00:56:00
9:56 PM,54.0,52.0,93,29.91,10.0,Calm,Calm,-,N/A,,Clear,0,2013-06-15 01:56:00
10:56 PM,52.0,50.0,93,29.92,10.0,Calm,Calm,-,N/A,,Clear,0,2013-06-15 02:56:00
11:56 PM,48.9,46.9,93,29.93,8.0,Calm,Calm,-,N/A,,Clear,0,2013-06-15 03:56:00